DMSP 5D-2 F13 DEB

Satellite information

Favourite Embed

Satellite Type and Status

DEBRISIN ORBIT

Key statistics

Satellite DMSP 5D-2 F13 DEB at a glance.

Uptime

11225

Days in orbit

Revolutions

≈ 14.0

Per day

Orbit

SSO

Sun Synchronous Orbit

Inclination

98.7

Latest

Satellite identification and parameters

Extended collection of information and parameters for DMSP 5D-2 F13 DEB.

Object identification

Identified? True

Debris? True

Object name: DMSP 5D-2 F13 DEB

International designator: 1995-015FY

Object number (NORAD): 42258

Object ID (CCSDS): 42258

Country: UNITED STATES OF AMERICA (US)

Current information (Y/N): Y

RCS size: SMALL

Orbital parameters

Period: 102.639 minutes

Inclination: 98.714 deg

SMA: 7261.652 km

Apoapsis: 978.496 km

Periapsis: 788.538 km

RAAN: 147.5899 deg

Eccentricy: 0.0130795

Argument of periapsis: 245.5922 deg

Mean anomaly: 113.1551 deg

Mean motion: 14.02973904 rev/day

Mean motion (dot): 0.00007861 rev/day2

B* drag term: 0.0047187 1/REarth

Two-line elements (TLE)

Creation date: Dec. 3, 2025, 2:36 p.m.

Reference frame: TEME

Reference center: EARTH

Epoch: Dec. 3, 2025, 7:32 a.m. UTC

TLE line 0: 0 DMSP 5D-2 F13 DEB

TLE line 1: 1 42258U 95015FY 25337.31441029 .00007861 00000-0 47187-2 0 9996

TLE line 2: 2 42258 98.7140 147.5899 0130795 245.5922 113.1551 14.02973904520002

Live tracking on map

Real-time ground track for satellite DMSP 5D-2 F13 DEB.

In-orbit conjunctions

A list of the most updated potential collisions computed for object DMSP 5D-2 F13 DEB.

Target Orbit TCA Probability of collision Miss distance Type
COSMOS 1333 LEO 2025-11-26 23:34:44 0.0001280792 215.0 (m) PAYLOAD

Associated space launch

Military meteorological satellite

DMSP 5D-2 F13 DEB was lifted into orbit during the mission ‘Atlas E | DMSP-5D2 F13’, on board a Atlas E space rocket.

The launch took place on March 24, 1995, 2:05 p.m. from Space Launch Complex 3W.

For more information about the launch, click the button.

Launch to space Atlas E | DMSP-5D2 F13
Atlas E | DMSP-5D2 F13

Agency: N/A

Status: Launch Successful

Launch date: March 24, 1995, 2:05 p.m. UTC

Rocket: Atlas E

Launch pad: Space Launch Complex 3W

Location: Vandenberg SFB, CA, USA

...

Latest news about this satellite

There are no fresh news available about this satellite. Check back as we update our databases every day.


Newsletter sign-up

Weekly statistics, charts and insights to help you stay on top of the space industry.